�N����,����,�~����,�C��,���x,�C��,����,���ϕ���,�ő�u�ԕ���,�ő厞����,���˗�,�I�_���x,�n�����x,�ő啗���N��,DTYPE
"20/11/30","00:10",0.0,5.9,92.9,1019.7,307.4,1.6,2.5,317.3,0.00,4.9,10.5,"00:08:08",1
"20/11/30","00:20",0.0,5.7,93.2,1019.7,315.9,1.5,2.4,326.0,0.00,4.7,10.8,"00:12:24",1
"20/11/30","00:30",0.0,5.7,93.5,1019.7,312.3,1.6,2.5,301.7,0.00,4.8,10.5,"00:28:40",1
"20/11/30","00:40",0.0,6.7,93.6,1019.7,322.7,2.8,4.7,333.1,0.00,5.8,10.7,"00:36:08",1
"20/11/30","00:50",0.0,6.9,93.6,1019.9,314.6,2.6,4.0,320.5,0.00,6.0,10.6,"00:47:12",1
"20/11/30","01:00",0.0,6.4,93.6,1019.7,323.4,2.0,3.3,333.8,0.00,5.5,10.7,"00:51:20",1
"20/11/30","01:10",0.0,6.0,93.8,1019.7,311.3,2.2,2.9,315.3,0.00,5.1,10.5,"01:00:16",1
"20/11/30","01:20",0.0,6.0,93.9,1019.9,322.0,2.5,3.5,317.0,0.00,5.1,10.5,"01:17:36",1
"20/11/30","01:30",0.0,5.8,93.9,1019.9,287.5,1.6,2.7,318.1,0.00,4.9,10.5,"01:20:16",1
"20/11/30","01:40",0.0,5.7,94.2,1019.9,328.4,1.7,2.8,326.5,0.00,4.9,10.3,"01:39:12",1
"20/11/30","01:50",0.0,5.8,94.1,1019.7,319.3,2.1,3.2,310.1,0.00,5.0,10.4,"01:41:52",1
"20/11/30","02:00",0.0,6.0,94.2,1020.4,321.5,2.2,3.3,315.6,0.00,5.2,10.4,"01:58:00",1
"20/11/30","02:10",0.0,6.2,94.1,1020.1,321.0,2.6,3.4,310.5,0.00,5.4,10.5,"02:00:08",1
"20/11/30","02:20",0.0,6.7,93.9,1020.4,321.7,3.2,5.0,329.7,0.00,5.8,10.5,"02:18:16",1
"20/11/30","02:30",0.0,6.9,93.5,1020.6,325.6,3.5,6.7,319.9,0.00,6.0,10.6,"02:21:36",1
"20/11/30","02:40",0.0,6.9,93.2,1020.8,324.4,2.7,5.2,333.3,0.00,5.9,10.5,"02:32:24",1
"20/11/30","02:50",0.0,6.9,92.9,1020.6,326.8,3.0,5.1,340.3,0.00,5.9,10.5,"02:41:36",1
"20/11/30","03:00",0.0,6.8,92.4,1020.4,278.3,2.6,5.5,314.6,0.00,5.7,10.5,"02:51:20",1
"20/11/30","03:10",0.0,6.5,92.1,1020.8,288.3,1.7,2.4,304.5,0.00,5.4,10.5,"03:01:12",1
"20/11/30","03:20",0.0,5.9,91.9,1021.1,292.6,1.3,2.4,324.9,0.00,4.7,10.3,"03:10:16",1
"20/11/30","03:30",0.0,5.3,91.8,1020.8,311.9,1.1,1.8,307.9,0.00,4.1,10.2,"03:24:48",1
"20/11/30","03:40",0.0,4.6,91.8,1020.8,302.6,1.6,2.1,323.4,0.00,3.4,10.2,"03:34:48",1
"20/11/30","03:50",0.0,4.4,92.1,1020.6,324.0,1.6,2.5,335.4,0.00,3.3,10.0,"03:46:24",1
"20/11/30","04:00",0.0,4.6,92.1,1020.4,327.9,2.1,2.7,335.4,0.00,3.5,10.1,"03:56:40",1
"20/11/30","04:10",0.0,4.6,92.3,1019.9,322.0,2.5,3.9,321.8,0.00,3.5,10.1,"04:00:02",1
"20/11/30","04:20",0.0,5.4,92.1,1019.7,327.1,3.2,4.3,317.6,0.00,4.3,9.9,"04:15:04",1
"20/11/30","04:30",0.0,5.5,91.7,1020.1,323.5,2.8,4.7,330.6,0.00,4.3,10.0,"04:20:02",1
"20/11/30","04:40",0.0,5.7,91.4,1019.9,307.7,2.8,4.1,320.2,0.00,4.5,10.0,"04:30:16",1
"20/11/30","04:50",0.0,5.8,91.0,1020.1,326.0,2.5,4.4,332.7,0.00,4.5,9.9,"04:41:44",1
"20/11/30","05:00",0.0,5.0,90.9,1020.4,295.3,0.8,3.4,323.9,0.00,3.7,10.0,"04:59:36",1
"20/11/30","05:10",0.0,4.5,91.0,1020.1,313.0,1.8,2.7,318.2,0.00,3.2,9.9,"05:00:08",1
"20/11/30","05:20",0.0,4.6,91.0,1019.9,312.8,1.5,4.0,325.1,0.00,3.3,10.0,"05:12:08",1
"20/11/30","05:30",0.0,4.2,91.1,1020.4,346.2,0.8,1.8,320.8,0.00,2.9,9.7,"05:26:08",1
"20/11/30","05:40",0.0,3.6,91.3,1020.4,314.3,1.0,2.4,311.3,0.00,2.4,9.7,"05:36:00",1
"20/11/30","05:50",0.0,4.1,91.8,1020.4,332.1,1.6,3.7,335.8,0.00,2.9,9.8,"05:48:08",1
"20/11/30","06:00",0.0,4.4,91.8,1020.4,329.6,2.3,4.0,335.4,0.00,3.2,9.6,"05:55:20",1
"20/11/30","06:10",0.0,5.0,91.8,1020.6,329.9,2.7,4.3,337.6,0.00,3.8,9.6,"06:01:04",1
"20/11/30","06:20",0.0,5.0,91.8,1020.8,329.6,2.5,4.8,330.4,0.00,3.8,9.6,"06:14:48",1
"20/11/30","06:30",0.0,4.8,91.8,1021.1,302.5,1.6,3.9,309.9,0.00,3.6,9.7,"06:24:00",1
"20/11/30","06:40",0.0,4.2,91.8,1020.8,316.2,2.0,2.7,294.0,0.00,3.0,9.6,"06:30:40",1
"20/11/30","06:50",0.0,4.4,92.3,1021.1,323.9,2.5,4.0,321.7,0.00,3.3,9.5,"06:49:04",1
"20/11/30","07:00",0.0,5.0,92.2,1021.3,319.5,3.2,5.7,324.7,0.00,3.9,9.7,"06:51:36",1
"20/11/30","07:10",0.0,5.1,92.2,1021.3,309.8,2.6,4.3,334.5,0.00,4.0,9.7,"07:07:44",1
"20/11/30","07:20",0.0,5.0,92.2,1021.5,305.3,2.0,2.5,310.5,0.00,3.9,9.8,"07:12:56",1
"20/11/30","07:30",0.0,5.1,92.3,1021.5,298.9,2.3,4.0,334.6,0.00,4.0,9.7,"07:27:36",1
"20/11/30","07:40",0.0,5.3,92.3,1022.0,316.4,2.5,3.6,323.9,0.00,4.2,9.7,"07:30:40",1
"20/11/30","07:50",0.0,5.6,92.2,1022.3,319.3,1.8,3.3,318.6,0.01,4.5,10.0,"07:40:40",1
"20/11/30","08:00",0.0,6.0,92.4,1022.5,327.9,2.3,4.9,335.2,0.04,4.9,9.7,"07:59:28",1
"20/11/30","08:10",0.0,6.8,91.9,1022.5,298.0,2.3,4.8,336.2,0.06,5.6,10.0,"08:00:40",1
"20/11/30","08:20",0.0,7.2,91.7,1023.0,274.3,1.6,2.9,270.2,0.06,6.0,10.1,"08:15:38",1
"20/11/30","08:30",0.0,7.9,91.2,1023.2,312.2,0.7,1.4,272.1,0.08,6.6,10.1,"08:22:16",1
"20/11/30","08:40",0.0,7.9,90.5,1023.0,303.7,1.5,2.6,312.4,0.06,6.5,10.2,"08:35:04",1
"20/11/30","08:50",0.0,7.9,89.9,1023.0,258.2,1.6,2.5,239.1,0.08,6.4,10.2,"08:44:16",1
"20/11/30","09:00",0.0,8.4,89.1,1023.2,264.1,1.0,1.7,262.2,0.12,6.8,10.2,"08:50:08",1
"20/11/30","09:10",0.0,8.3,88.1,1023.7,247.2,0.8,2.1,246.2,0.10,6.5,10.4,"09:06:56",1
"20/11/30","09:20",0.0,8.4,87.1,1023.7,243.3,0.5,1.4,339.0,0.08,6.4,10.6,"09:19:20",1
"20/11/30","09:30",0.0,9.1,86.3,1023.4,261.8,0.5,1.7,295.8,0.22,7.0,10.5,"09:29:28",1
"20/11/30","09:40",0.0,9.8,84.6,1023.7,247.1,0.7,1.7,245.1,0.24,7.4,11.1,"09:36:56",1
"20/11/30","09:50",0.0,10.4,82.2,1023.9,253.1,0.8,1.4,248.4,0.26,7.5,11.2,"09:48:00",1
"20/11/30","10:00",0.0,10.9,80.2,1023.7,222.8,0.7,1.8,223.2,0.29,7.7,11.3,"09:53:04",1
"20/11/30","10:10",0.0,11.5,77.4,1023.9,174.1,0.6,2.0,148.8,0.30,7.7,11.3,"10:00:32",1
"20/11/30","10:20",0.0,11.9,74.3,1023.7,212.7,0.8,1.8,225.6,0.32,7.5,11.6,"10:16:00",1
"20/11/30","10:30",0.0,12.2,69.2,1023.9,344.8,1.6,3.1,20.9,0.34,6.8,11.7,"10:25:04",1
"20/11/30","10:40",0.0,12.9,66.9,1023.9,269.9,1.6,2.8,238.3,0.36,6.9,12.0,"10:34:56",1
"20/11/30","10:50",0.0,13.2,64.0,1023.4,274.9,2.2,4.7,308.8,0.39,6.6,12.1,"10:48:08",1
"20/11/30","11:00",0.0,12.7,62.6,1023.2,306.6,2.1,6.0,340.4,0.20,5.8,12.2,"10:52:16",1
"20/11/30","11:10",0.0,13.5,62.7,1023.4,291.8,1.3,2.6,304.6,0.36,6.6,12.6,"11:03:44",1
"20/11/30","11:20",0.0,13.9,61.2,1022.7,291.0,2.1,5.0,328.8,0.40,6.6,12.7,"11:11:52",1
"20/11/30","11:30",0.0,13.8,59.8,1022.7,283.3,2.2,4.3,317.3,0.41,6.2,12.8,"11:29:20",1
"20/11/30","11:40",0.0,13.9,59.5,1022.5,268.8,2.3,4.1,294.7,0.45,6.2,13.0,"11:32:16",1
"20/11/30","11:50",0.0,14.3,58.9,1022.0,251.4,2.1,3.4,233.5,0.45,6.4,13.2,"11:43:20",1
"20/11/30","12:00",0.0,14.2,58.2,1022.0,278.7,2.1,3.7,289.5,0.38,6.2,13.2,"11:56:08",1
"20/11/30","12:10",0.0,13.7,59.2,1021.8,299.0,2.2,4.8,228.5,0.24,5.9,13.3,"12:00:40",1
"20/11/30","12:20",0.0,13.7,57.1,1021.8,314.1,2.8,7.5,351.2,0.33,5.4,13.7,"12:19:04",1
"20/11/30","12:30",0.0,13.6,58.1,1021.8,315.0,2.7,5.8,335.4,0.18,5.6,13.6,"12:21:04",1
"20/11/30","12:40",0.0,13.7,57.2,1021.8,328.4,2.5,5.4,327.5,0.18,5.4,13.5,"12:31:52",1
"20/11/30","12:50",0.0,13.3,58.0,1021.8,317.2,2.5,4.2,325.2,0.08,5.3,13.3,"12:48:56",1
"20/11/30","13:00",0.0,13.1,59.1,1021.5,331.4,3.1,5.8,337.9,0.16,5.3,13.5,"12:56:00",1
"20/11/30","13:10",0.0,13.6,56.1,1021.3,317.8,2.8,6.2,337.0,0.25,5.1,13.4,"13:00:56",1
"20/11/30","13:20",0.0,13.7,57.5,1020.8,297.0,2.3,4.5,320.7,0.24,5.5,13.6,"13:18:40",1
"20/11/30","13:30",0.0,13.9,55.5,1021.1,282.8,2.5,4.5,255.8,0.19,5.2,13.7,"13:29:44",1
"20/11/30","13:40",0.0,13.7,57.0,1021.1,270.0,2.5,4.2,236.2,0.17,5.4,13.7,"13:33:28",1
"20/11/30","13:50",0.0,14.5,56.1,1021.1,304.7,2.5,4.2,289.1,0.34,5.9,13.8,"13:41:12",1
"20/11/30","14:00",0.0,15.4,54.1,1021.1,283.7,2.3,4.2,317.2,0.41,6.2,14.0,"13:58:40",1
"20/11/30","14:10",0.0,14.0,54.9,1021.3,330.3,3.7,7.9,332.8,0.21,5.1,14.0,"14:05:44",1
"20/11/30","14:20",0.0,13.6,57.4,1021.3,322.8,2.3,4.7,340.1,0.10,5.4,13.7,"14:15:44",1
"20/11/30","14:30",0.0,13.3,58.2,1021.1,341.0,2.7,5.9,347.4,0.11,5.3,13.9,"14:29:20",1
"20/11/30","14:40",0.0,13.3,59.0,1021.3,337.9,2.6,4.9,351.8,0.12,5.5,13.8,"14:33:52",1
"20/11/30","14:50",0.0,13.7,57.4,1021.5,335.2,3.4,8.5,341.8,0.25,5.5,14.0,"14:46:08",1
"20/11/30","15:00",0.0,13.9,58.1,1021.5,338.0,3.2,7.2,349.8,0.20,5.8,13.8,"14:50:48",1
"20/11/30","15:10",0.0,13.0,60.3,1021.8,339.4,2.7,5.1,333.3,0.06,5.5,13.8,"15:00:24",1
"20/11/30","15:20",0.0,12.7,61.9,1021.5,344.3,2.1,4.3,322.4,0.04,5.6,13.6,"15:11:36",1
"20/11/30","15:30",0.0,12.5,62.3,1021.5,346.1,2.0,4.9,7.6,0.05,5.5,13.7,"15:26:56",1
"20/11/30","15:40",0.0,12.2,63.6,1022.0,352.7,2.2,4.9,37.5,0.04,5.5,13.5,"15:36:08",1
"20/11/30","15:50",0.0,11.9,64.5,1021.8,357.9,1.8,3.7,1.2,0.03,5.5,13.5,"15:40:24",1
"20/11/30","16:00",0.0,11.9,66.1,1021.8,348.2,1.6,2.9,338.1,0.04,5.8,13.4,"15:53:12",1
"20/11/30","16:10",0.0,11.5,66.9,1021.8,346.7,1.8,4.2,342.4,0.01,5.6,13.2,"16:06:40",1
"20/11/30","16:20",0.0,11.1,68.2,1021.5,334.6,1.6,3.1,339.3,0.00,5.5,13.3,"16:11:20",1
"20/11/30","16:30",0.0,10.8,69.5,1022.0,339.0,2.1,3.5,339.8,0.00,5.5,13.2,"16:27:58",1
"20/11/30","16:40",0.0,10.5,71.0,1022.0,337.9,2.8,5.1,334.4,0.00,5.5,13.0,"16:33:50",1
"20/11/30","16:50",0.0,10.2,72.0,1022.0,331.0,2.6,4.8,332.2,0.00,5.4,12.8,"16:40:16",1
"20/11/30","17:00",0.0,9.9,73.0,1021.5,327.2,2.6,4.2,331.0,0.00,5.3,12.9,"16:59:14",1
"20/11/30","17:10",0.0,9.7,73.5,1022.0,314.7,2.5,3.6,334.5,0.00,5.2,12.7,"17:00:08",1
"20/11/30","17:20",0.0,9.4,74.4,1022.3,284.3,1.8,2.7,267.2,0.00,5.1,12.6,"17:16:16",1
"20/11/30","17:30",0.0,9.2,75.4,1022.3,305.3,2.0,2.7,315.2,0.00,5.1,12.5,"17:29:36",1
"20/11/30","17:40",0.0,9.0,76.3,1022.5,307.0,2.0,3.1,327.6,0.00,5.1,12.5,"17:30:24",1
"20/11/30","17:50",0.0,9.1,77.3,1022.7,311.0,2.2,3.7,324.4,0.00,5.4,12.3,"17:47:12",1
"20/11/30","18:00",0.0,9.3,78.1,1022.5,322.1,3.0,4.4,310.5,0.00,5.7,12.4,"17:54:48",1
"20/11/30","18:10",0.0,9.4,78.8,1022.7,326.2,2.5,3.6,319.5,0.00,5.9,12.2,"18:01:12",1
"20/11/30","18:20",0.0,9.4,79.3,1022.7,322.5,2.2,2.9,338.6,0.00,6.0,12.4,"18:14:48",1
"20/11/30","18:30",0.0,9.3,79.5,1023.0,307.8,2.6,3.9,316.3,0.00,6.0,12.3,"18:23:12",1
"20/11/30","18:40",0.0,9.2,79.7,1023.0,302.7,2.2,2.9,329.5,0.00,5.9,12.2,"18:39:28",1
"20/11/30","18:50",0.0,9.3,80.0,1023.0,314.5,2.7,4.1,317.8,0.00,6.1,12.2,"18:46:08",1
"20/11/30","19:00",0.0,9.1,80.2,1023.2,317.5,2.1,2.7,320.7,0.00,5.9,12.2,"18:51:28",1
"20/11/30","19:10",0.0,8.9,80.6,1023.2,292.9,1.5,2.6,314.6,0.00,5.8,12.1,"19:00:16",1
"20/11/30","19:20",0.0,8.5,80.8,1023.2,292.1,1.3,1.7,272.0,0.00,5.4,12.1,"19:17:20",1
"20/11/30","19:30",0.0,8.2,81.1,1023.4,300.4,1.3,2.1,320.3,0.00,5.2,12.0,"19:21:20",1
"20/11/30","19:40",0.0,7.8,81.7,1023.4,314.4,2.0,2.9,319.7,0.00,4.9,11.9,"19:31:36",1
"20/11/30","19:50",0.0,7.4,82.4,1023.4,308.5,1.8,2.2,313.2,0.00,4.6,11.7,"19:40:56",1
"20/11/30","20:00",0.0,7.5,83.5,1023.7,298.2,2.1,4.0,320.3,0.00,4.9,11.6,"19:58:00",1
"20/11/30","20:10",0.0,7.9,84.3,1023.4,319.9,3.1,4.1,331.9,0.00,5.5,11.5,"20:02:08",1
"20/11/30","20:20",0.0,8.0,84.9,1023.4,319.9,3.1,4.2,332.7,0.00,5.7,11.4,"20:15:28",1
"20/11/30","20:30",0.0,8.1,85.0,1023.2,324.6,3.4,4.8,323.9,0.00,5.8,11.4,"20:26:24",1
"20/11/30","20:40",0.0,8.1,85.2,1023.7,328.2,3.6,5.4,326.0,0.00,5.8,11.3,"20:37:28",1
"20/11/30","20:50",0.0,8.3,85.4,1023.7,327.5,3.7,5.1,335.1,0.00,6.0,11.4,"20:49:20",1
"20/11/30","21:00",0.0,8.5,85.1,1023.9,322.9,3.7,5.2,331.7,0.00,6.2,11.5,"20:50:24",1
"20/11/30","21:10",0.0,8.6,84.7,1024.1,318.6,3.4,4.7,332.4,0.00,6.2,11.5,"21:04:40",1
"20/11/30","21:20",0.0,8.8,84.1,1023.9,311.6,2.8,4.8,326.4,0.00,6.3,11.3,"21:15:52",1
"20/11/30","21:30",0.0,8.6,83.7,1023.9,323.5,2.7,3.6,325.2,0.00,6.0,11.3,"21:20:32",1
"20/11/30","21:40",0.0,8.3,83.9,1024.4,329.5,2.8,4.1,319.9,0.00,5.8,11.4,"21:31:28",1
"20/11/30","21:50",0.0,8.2,84.3,1024.1,326.7,3.4,4.9,312.0,0.00,5.8,11.3,"21:43:44",1
"20/11/30","22:00",0.0,8.2,84.6,1023.9,327.3,3.7,5.4,337.1,0.00,5.8,11.3,"21:58:48",1
"20/11/30","22:10",0.0,8.2,84.9,1023.9,327.0,3.9,5.5,329.3,0.00,5.9,11.2,"22:06:00",1
"20/11/30","22:20",0.0,8.0,85.1,1024.1,327.1,3.9,6.4,325.8,0.00,5.7,11.2,"22:11:36",1
"20/11/30","22:30",0.0,7.8,85.5,1024.1,329.1,3.1,4.5,325.5,0.00,5.6,11.1,"22:26:56",1
"20/11/30","22:40",0.0,7.7,85.9,1023.9,328.5,3.0,4.2,326.8,0.00,5.5,11.2,"22:35:04",1
"20/11/30","22:50",0.0,7.6,86.3,1023.9,323.0,3.0,4.7,325.9,0.00,5.5,11.2,"22:43:44",1
"20/11/30","23:00",0.0,7.7,86.8,1023.9,327.4,3.6,5.5,331.9,0.00,5.7,11.1,"22:56:32",1
"20/11/30","23:10",0.0,7.8,86.9,1024.4,321.6,3.9,6.0,332.5,0.00,5.8,11.1,"23:01:28",1
"20/11/30","23:20",0.0,7.8,87.0,1024.9,315.9,3.4,6.2,321.9,0.00,5.8,10.9,"23:13:44",1
"20/11/30","23:30",0.0,7.6,87.0,1024.4,321.0,3.0,4.3,322.5,0.00,5.6,11.0,"23:21:36",1
"20/11/30","23:40",0.0,7.7,87.3,1023.9,322.2,3.7,5.0,327.6,0.00,5.8,11.0,"23:32:40",1
"20/11/30","23:50",0.0,7.6,87.3,1024.1,327.0,3.5,6.0,340.7,0.00,5.7,11.1,"23:48:48",1
"20/11/30","24:00",0.0,7.4,87.5,1024.4,326.1,3.2,5.0,319.7,0.00,5.5,10.9,"23:55:12",1
